Location: Olsztyn
(53.7767°N, 20.4765°E)
Time: 20:01:03
(UTC+02:00)

Envisat - Pass Details

Date: 29 February 2024
Orbit: 762 x 764 km, 98.3° (Epoch: 20 April)

Event Time Altitude Azimuth Distance (km) Brightness Sun altitude
Rises 05:15:06 0° 7° (N) 3,246 6.4 -11.5°
Reaches altitude 10° 05:18:11 10° 347° (NNW) 2,315 5.4 -11.1°
Maximum altitude 05:21:17 17° 310° (NW) 1,898 4.6 -10.6°
Enters shadow 05:23:28 13° 281° (W) 2,111 4.6 -10.3°
